www.pogodaiklimat.ru

Погода и климат >> Архив погоды >> Австралия >> Квинсленд >> Бердсвилл


ПОГОДА в Бердсвилле

  • Прогноз погоды в Бердсвилле
  • Монитор погоды в Бердсвилле

АРХИВ ПОГОДЫ в Бердсвилле

Время (UTC), дата Ветер
(напр.,м/с)
 
Видим.   Явления Облачность Т
(С)
Тd
(С)
f
(%)
Тe
(С)
Тes
(С)
Комфортность P
(гПа)
Po
(гПа)
Тmin
(С)
Tmax
(С)
R
(мм)
R24
(мм)
S
(см)
17 12.06 Ю 6 н/о н/о +19.9 +15.1 74 +22 +22 комфорт 1016.9 1011.3
18 12.06 Ю 8 н/о н/о +19.2 +14.9 76 +20 +20 1017.1 1011.5
20 12.06 Ю 8 н/о н/о +18.3 +12.1 67 +18 +18 1017.9 1012.3
21 12.06 Ю 8 н/о н/о +17.8 +12.3 70 +17 +17 1019.2 1013.6
23 12.06 Ю 6 н/о н/о +17.6 +12.3 71 +17 +17 1020.6 1014.9
00 13.06 Ю 7 н/о н/о +18.4 +11.7 65 +18 +18 1021.1 1015.4
02 13.06 Ю 8 н/о н/о +21.3 +12.7 58 +24 +24 комфорт 1020.1 1014.4 +17.1
03 13.06 Ю 7 н/о н/о +22.0 +12.5 55 +25 +25 комфорт 1019.0 1013.4
05 13.06 Ю 6 н/о н/о +23.3 +10.4 44 +25 +25 комфорт 1017.7 1012.1
06 13.06 Ю 7 н/о н/о +23.5 +9.1 40 +24 +24 комфорт 1017.7 1012.1
08 13.06 ЮЗ 4 н/о н/о +20.7 +9.3 48 +22 +22 комфорт 1018.4 1012.8
09 13.06 Ю 5 н/о н/о +18.9 +9.9 56 +19 +19 1019.2 1013.6
11 13.06 ЮЗ 4 н/о н/о +16.8 +9.7 63 +16 +16 1020.2 1014.5
12 13.06 Ю 4 н/о н/о +16.3 +10.2 67 +16 +16 1020.5 1014.8
14 13.06 Ю 3 н/о н/о +15.2 +10.2 72 +15 +15 1020.3 1014.6 +24.1
15 13.06 ЮЗ 4 н/о н/о +14.3 +9.7 74 +13 +13 1020.3 1014.6
17 13.06 Ю 3 н/о н/о +12.9 +8.6 75 +12 +12 1019.8 1014.1
18 13.06 ЮЗ 3 н/о н/о +11.4 +8.3 81 +10 +10 1020.1 1014.4
20 13.06 ЮЗ 3 н/о н/о +10.8 +7.5 80 +9 +9 1020.2 1014.5
21 13.06 ЮЗ 3 н/о н/о +10.5 +7.6 82 +8 +8 1021.0 1015.3
23 13.06 Ю 4 н/о н/о +13.4 +7.2 66 +12 +12 1021.9 1016.2
00 14.06 Ю 6 н/о н/о +16.4 +7.1 54 +15 +15 1022.4 1016.7
02 14.06 Ю 7 н/о н/о +19.8 +6.9 43 +20 +20 1021.5 1015.8 +10.4
03 14.06 Ю 6 н/о н/о +20.9 +7.5 42 +22 +22 комфорт 1020.4 1014.7
05 14.06 Ю 6 н/о н/о +21.0 +6.2 38 +22 +22 комфорт 1019.1 1013.5
06 14.06 Ю 5 н/о н/о +21.3 +6.4 38 +22 +22 комфорт 1019.0 1013.4
08 14.06 Ю 4 н/о н/о +19.0 +6.5 44 +19 +19 1019.9 1014.2
09 14.06 ЮЗ 4 н/о н/о +16.1 +7.6 57 +16 +16 1020.4 1014.7
11 14.06 ЮЗ 3 н/о н/о +14.0 +5.9 58 +13 +13 1021.5 1015.8
12 14.06 ЮЗ 3 н/о н/о +13.1 +5.5 60 +12 +12 1021.3 1015.6
14 14.06 Ю 3 н/о н/о +11.2 +5.7 69 +10 +10 1020.9 1015.2 +21.7
15 14.06 Ю 3 н/о н/о +11.5 +5.6 67 +10 +10 1020.8 1015.1
17 14.06 Ю 3 н/о н/о +10.8 +4.0 63 +9 +9 1020.2 1014.5
18 14.06 Ю 3 н/о н/о +9.8 +4.2 68 +8 +8 1020.0 1014.3
20 14.06 Ю 3 н/о н/о +7.6 +4.4 80 +5 +5 1020.4 1014.7
21 14.06 Ю 3 н/о н/о +8.3 +3.9 74 +6 +6 1020.7 1015.0
23 14.06 Ю 3 н/о н/о +11.0 +4.5 64 +9 +9 1022.1 1016.4
00 15.06 ЮВ 3 н/о н/о +14.9 +5.7 54 +14 +14 1022.6 1016.9
02 15.06 ЮВ 4 н/о н/о +19.8 +4.7 37 +20 +20 1021.6 1015.9 +7.6
03 15.06 ЮВ 5 н/о н/о +19.9 +3.6 34 +20 +20 1020.0 1014.3
05 15.06 ЮВ 4 н/о н/о +21.0 +3.2 31 +22 +22 комфорт 1018.5 1012.9
06 15.06 В 5 н/о н/о +21.1 +2.9 30 +21 +21 комфорт 1018.1 1012.5
08 15.06 В 3 н/о н/о +19.3 +3.5 35 +20 +20 1018.6 1013.0
09 15.06 ЮЗ 4 н/о н/о +16.0 +5.6 50 +15 +15 1019.6 1014.0
11 15.06 ЮЗ 4 н/о н/о +15.3 +6.6 56 +15 +15 1020.5 1014.8
12 15.06 Ю 4 н/о н/о +15.5 +8.7 64 +15 +15 1020.5 1014.8
14 15.06 В 3 н/о {туман} н/о +14.9 +9.1 68 +14 +14 1021.1 1015.4 +21.9
15 15.06 СВ 3 н/о н/о +14.1 +10.5 79 +13 +13 1020.2 1014.5
17 15.06 З 2 н/о {туман} н/о +13.0 +10.0 82 +12 +12 1020.5 1014.8
18 15.06 З 2 н/о н/о +12.1 +9.3 83 +11 +11 1020.4 1014.7
20 15.06 ЮЗ 3 н/о н/о +11.2 +8.1 81 +10 +10 1020.9 1015.2
21 15.06 ЮЗ 2 н/о н/о +10.4 +7.5 82 +9 +9 1021.4 1015.7
23 15.06 ЮЗ 3 н/о н/о +11.8 +8.6 81 +10 +10 1023.0 1017.3
00 16.06 ЮЗ 3 н/о н/о +15.0 +8.0 63 +15 +15 1023.3 1017.6
02 16.06 Ю 6 н/о н/о +18.9 +5.7 42 +19 +19 1022.5 1016.8 +9.9
03 16.06 Ю 7 н/о н/о +19.8 +4.7 37 +20 +20 1021.6 1015.9
05 16.06 Ю 7 н/о {туман} н/о +20.2 +3.9 34 +20 +20 1020.7 1015.0
06 16.06 Ю 7 н/о н/о +20.2 +4.3 35 +20 +20 1020.5 1014.8
08 16.06 Ю 5 н/о н/о +17.7 +3.6 39 +17 +17 1021.4 1015.7
09 16.06 Ю 4 н/о н/о +15.1 +4.2 48 +14 +14 1022.2 1016.5
11 16.06 Ю 3 н/о н/о +11.5 +4.3 61 +10 +10 1023.3 1017.6
12 16.06 ЮЗ 3 н/о н/о +11.3 +4.5 63 +10 +10 1023.3 1017.6
14 16.06 ЮЗ 3 н/о н/о +10.2 +4.6 68 +9 +9 1023.5 1017.8 +20.9
15 16.06 ЮЗ 3 н/о н/о +9.3 +3.9 69 +7 +7 1023.3 1017.6
17 16.06 ЮЗ 3 н/о н/о +8.1 +3.9 75 +6 +6 1022.5 1016.8
18 16.06 ЮЗ 3 н/о н/о +8.7 +2.9 67 +7 +7 1022.3 1016.6
20 16.06 ЮЗ 2 н/о н/о +7.6 +3.1 73 +6 +6 1022.7 1017.0
21 16.06 ЮЗ 2 н/о н/о +6.5 +2.2 74 +5 +5 1023.5 1017.8
23 16.06 ЮЗ 3 н/о н/о +10.0 +4.0 66 +8 +8 1024.9 1019.2
00 17.06 Ю 2 н/о н/о +14.4 +5.0 53 +14 +14 1025.4 1019.7
02 17.06 ЮВ 3 н/о н/о +19.1 +2.5 33 +20 +20 1024.7 1019.0 +6.1
03 17.06 В 2 н/о н/о +20.1 +2.0 30 +21 +21 комфорт 1023.8 1018.1
05 17.06 Ю 3 н/о н/о +20.9 +2.2 29 +22 +22 комфорт 1022.0 1016.3
06 17.06 Ю 4 н/о н/о +20.5 +1.9 29 +21 +21 комфорт 1021.7 1016.0
08 17.06 ЮЗ 4 н/о н/о +17.1 +3.4 40 +17 +17 1022.0 1016.3
09 17.06 Ю 4 н/о н/о +15.7 +2.8 42 +15 +15 1022.3 1016.6
11 17.06 ЮЗ 3 н/о н/о +12.4 +3.6 55 +11 +11 1023.1 1017.4
12 17.06 ЮЗ 3 н/о н/о +11.0 +3.3 59 +9 +9 1023.1 1017.4
14 17.06 штиль 0 н/о н/о +10.4 +3.4 62 +10 +10 1023.0 1017.3 +21.0
15 17.06 ЮЗ 3 н/о н/о +9.9 +3.4 64 +8 +8 1022.8 1017.1
17 17.06 ЮЗ 3 н/о н/о +8.0 +3.3 72 +5 +5 1022.9 1017.2
18 17.06 ЮЗ 3 н/о н/о +7.8 +3.8 76 +5 +5 1023.0 1017.3
20 17.06 Ю 2 н/о н/о +7.5 +3.0 73 +6 +6 1023.2 1017.5
21 17.06 штиль 0 н/о н/о +8.2 +3.5 72 +8 +8 1023.4 1017.7
23 17.06 ЮЗ 1 н/о н/о +11.2 +3.5 59 +11 +11 1024.7 1019.0
00 18.06 Ю 3 н/о н/о +14.7 +4.7 51 +14 +14 1025.2 1019.5
02 18.06 Ю 6 н/о н/о +18.8 +3.8 37 +19 +19 1024.4 1018.7 +6.8
03 18.06 Ю 6 н/о н/о +18.8 +2.6 34 +18 +18 1023.4 1017.7
05 18.06 Ю 7 н/о н/о +19.5 +3.2 34 +19 +19 1022.1 1016.4
06 18.06 ЮЗ 6 н/о н/о +18.7 +3.3 36 +18 +18 1022.2 1016.5
08 18.06 ЮЗ 4 н/о н/о +16.7 +3.7 42 +16 +16 1022.7 1017.0
09 18.06 Ю 4 н/о н/о +14.9 +3.7 47 +14 +14 1022.7 1017.0
11 18.06 ЮЗ 3 н/о н/о +10.3 +4.0 65 +8 +8 1023.4 1017.7
12 18.06 Ю 2 н/о н/о +10.4 +4.5 67 +9 +9 1023.6 1017.9
14 18.06 Ю 2 н/о н/о +8.5 +2.3 65 +7 +7 1024.0 1018.3 +19.8
15 18.06 ЮЗ 4 н/о н/о +7.9 +2.8 70 +5 +5 1023.4 1017.7
17 18.06 ЮЗ 5 н/о н/о +6.9 +3.0 76 +3 +3 1023.0 1017.3
18 18.06 Ю 3 н/о н/о +7.7 +3.4 74 +5 +5 1023.2 1017.5
20 18.06 ЮЗ 3 н/о н/о +5.4 +2.6 82 +2 +2 1023.8 1018.1
21 18.06 Ю 4 н/о н/о +5.7 +2.7 81 +2 +2 1024.2 1018.5
23 18.06 Ю 4 н/о н/о +9.4 +4.0 69 +7 +7 1025.2 1019.5
00 19.06 ЮВ 5 н/о н/о +13.0 +4.7 57 +11 +11 1025.6 1019.9
02 19.06 ЮВ 4 н/о н/о +17.7 +5.3 44 +18 +18 1024.9 1019.2 +5.2
03 19.06 Ю 4 н/о н/о +18.3 +1.8 33 +18 +18 1023.6 1017.9
05 19.06 ЮВ 5 н/о н/о +18.6 +1.6 32 +18 +18 1022.1 1016.4
06 19.06 Ю 6 н/о н/о +18.9 +1.0 30 +19 +19 1021.9 1016.2
08 19.06 Ю 5 н/о н/о +16.3 +3.4 42 +16 +16 1022.5 1016.8
09 19.06 Ю 4 н/о н/о +13.6 +3.9 52 +12 +12 1023.1 1017.4
11 19.06 Ю 4 н/о н/о +11.0 +4.0 62 +9 +9 1024.0 1018.3
12 19.06 Ю 4 н/о н/о +11.4 +3.7 59 +9 +9 1024.3 1018.6
14 19.06 Ю 4 н/о н/о +9.0 +2.3 63 +7 +7 1024.2 1018.5 +19.8
15 19.06 Ю 4 н/о н/о +9.1 +1.8 60 +6 +6 1024.2 1018.5

 

Местоположение метеостанции Бердсвилл (Квинсленд, Австралия): широта -25.90 долгота 139.35 высота над уровнем моря 47 м.

В архиве по умолчанию представлена погода в Бердсвилле за последнюю неделю. Архивные данные за месяц целиком и за предыдущие месяцы, начиная с января 2011 года, Вы можете получить, выбрав интересующий диапазон дат из раскрывающегося списка и нажав кнопку "Ввод!".


*Определитесь, кто Вы:
робот инопланетянин человек

Внимание! Время в таблицах - всемирное. Для получения местного времени необходимо прибавить поправку, которая равна 10 ч.

Смотрите также архив погоды в соседних городах и на ближайших метеорологических станциях:

Погода в Мумбе (Южная Австралия, Австралия) (259 км)
Погода в Месторождении Ballera (Квинсленд, Австралия) (298 км)
Погода в Однадатте (Южная Австралия, Австралия) (429 км)
Погода в Марри (Южная Австралия, Австралия) (437 км)
Погода в Фосфат-Хилл (Квинсленд, Австралия) (460 км)
Погода в Джервойсе (Северная территория, Австралия) (461 км)
Погода в Тибообере (Новый Южный Уэльс, Австралия) (476 км)
Погода в Аэропорту Трепелл (Квинсленд, Австралия) (479 км)
Погода в Таргоминде (Квинсленд, Австралия) (499 км)
Погода в Ли-Крике (Южная Австралия, Австралия) (531 км)

Пояснения к столбцам:

Ветер - указаны скорость ветра в м/с - средняя за 10 мин, порывы в срок и между сроками (в фигурных скобках) и направление, откуда дует ветер: С - северный, СВ - северо-восточный, В - восточный, ЮВ - юго-восточный, Ю - южный, ЮЗ - юго-западный, З - западный, СЗ - северо-западный.
Видимость - горизонтальная дальность видимости в метрах или километрах. При видимости от 1 до 10 км при отсутствии осадков обычно наблюдается дымка, при ухудшении видимости до 1 км и менее - туман. В сухую погоду видимость может ухудшаться дымом, пылью или мглою.
Явления - указаны атмосферные явления, наблюдавшиеся в срок или в последний час перед сроком; фигурными скобками обозначены явления, наблюдавшиеся между сроками (за 1-3 часа до срока); квадратными скобками обозначены град или гололедные отложения с указанием их диаметра в мм.
Облачность - указаны через наклонную черту общая и нижняя облачность в баллах и высота нижней границы облаков в метрах; квадратными скобками обозначены формы облаков: Ci - перистые, Cs - перисто-слоистые, Cc - перисто-кучевые, Ac - высококучевые, As - высокослоистые, Sc - слоисто-кучевые, Ns - слоисто-дождевые, Cu - кучевые, Cb - кучево-дождевые. Подробнее классификацию облаков см. в Атласе облаков (PDF).
T - Температура воздуха - температура, измеренная на высоте 2 м над землей.
Td - Температура точки росы - температура, при понижении до которой содержащийся в воздухе водяной пар достигнет насыщения.
f - Относительная влажность воздуха - влажноcть воздуха, измеренная на высоте 2 м над землей.
Te - Эффективная температура - температура, которую ощущает одетый по сезону человек в тени. Характеристика душности погоды. При расчете учитывается влияние влажности воздуха и скорости ветра на теплоощущения человека.
Tes - Эффективная температура на солнце - температура, которую ощущает человек, с поправкой на солнечный нагрев. Характеристика знойности погоды. Зависит от высоты солнца над горизонтом, облачности и скорости ветра. Ночью, в пасмурную погоду, а также при ветре 12 м/с и более поправка равна нулю.
P - Атмосферное давление - приведенное к уровню моря атмосферное давление.
Po - Атмосферное давление - измеренное на уровне метеостанции атмосферное давление.
Tmin - Минимальная температура - минимум температуры воздуха на высоте 2 м над землей.
Tmax - Максимальная температура - максимум температуры воздуха на высоте 2 м над землей.
R - Количество осадков - Количество выпавших осадков за период времени, мм. При наведении курсора мыши на число - период времени, за который выпало указанное количество осадков.
R24 - Количество осадков - Количество выпавших осадков за 24 часа, мм.
S - Снежный покров - Высота снежного покрова, см. При наведении курсора мыши на число - состояние снежного покрова и степень покрытия местности в баллах.